Retour au catalogue

FENGYUN 1C DEB

ActifLEO
NORAD 31880·DEBRIS·🇨🇳 China

Lancé May 10, 1999 depuis Taiyuan Satellite Launch Center

Loading…

Prochains Passages (prochaines 24 heures)

TLE

FraisSource: Space-Track

Époque: Sep 14, 2026, 07:33 UTC

1 31880U 99025CKF 26257.31495150  .00000609  00000-0  50239-3 0  9992
2 31880 100.0441  86.5755 0127244 148.0187 212.8771 13.89844199668078

Suivez FENGYUN 1C DEB en temps réel avec AllMySat

Download on the App Store